| time (UTC) | temp F | wind direction | speed MPH | gust MPH | rain 1hr in | rain 24hr in | rain mn in | humidity % | barometer mb |
| 20260906093150 | 67 | 350 | 6.0 | 5.0 | 0.00 | 0.00 | 0.00 | ||
| 20260906092652 | 65 | 288 | 2.0 | 1.0 | 0.00 | 0.00 | 0.00 | ||
| 20260906092151 | 64 | 304 | 3.0 | 3.0 | 0.00 | 0.00 | 0.00 | ||
| 20260906091153 | 66 | 34 | 7.0 | 3.0 | 0.00 | 0.00 | 0.00 | ||
| 20260906085654 | 66 | 55 | 4.0 | 4.0 | 0.00 | 0.00 | 0.00 | ||
| 20260906085155 | 64 | 17 | 3.0 | 2.0 | 0.00 | 0.00 | 0.00 | ||
| 20260906084655 | 64 | 48 | 4.0 | 4.0 | 0.00 | 0.00 | 0.00 | ||
| 20260906084157 | 62 | 20 | 4.0 | 2.0 | 0.00 | 0.00 | 0.00 | ||
| 20260906083658 | 62 | 354 | 0.0 | 2.0 | 0.00 | 0.00 | 0.00 | ||
| 20260906083156 | 62 | 318 | 3.0 | 3.0 | 0.00 | 0.00 | 0.00 | ||
| 20260906082657 | 63 | 343 | 3.0 | 4.0 | 0.00 | 0.00 | 0.00 | ||
| 20260906082159 | 63 | 42 | 4.0 | 3.0 | 0.00 | 0.00 | 0.00 | ||
| 20260906081700 | 62 | 83 | 6.0 | 4.0 | 0.00 | 0.00 | 0.00 | ||
| 20260906080659 | 62 | 31 | 1.0 | 6.0 | 0.00 | 0.00 | 0.00 | ||
| 20260906080200 | 62 | 32 | 2.0 | 3.0 | 0.00 | 0.00 | 0.00 | ||
| 20260906074704 | 62 | 28 | 6.0 | 7.0 | 0.00 | 0.00 | 0.00 | ||
| 20260906072205 | 61 | 120 | 3.0 | 3.0 | 0.00 | 0.00 | 0.00 | ||
| 20260906071704 | 59 | 59 | 0.0 | 3.0 | 0.00 | 0.00 | 0.00 | ||
| 20260906071205 | 59 | 65 | 0.0 | 3.0 | 0.00 | 0.00 | 0.00 | ||
| 20260906070707 | 59 | 27 | 0.0 | 0.0 | 0.00 | 0.00 | 0.00 | ||
| 20260906065207 | 57 | 30 | 0.0 | 0.0 | 0.00 | 0.00 | 0.00 | ||
| 20260906064210 | 57 | 333 | 0.0 | 0.0 | 0.00 | 0.00 | 0.00 | ||
| 20260906063213 | 54 | 333 | 0.0 | 0.0 | 0.00 | 0.00 | 0.00 | ||
| 20260906062212 | 53 | 203 | 0.0 | 0.0 | 0.00 | 0.00 | 0.00 | ||
| 20260906061714 | 52 | 203 | 0.0 | 0.0 | 0.00 | 0.00 | 0.00 | ||
| 20260906060716 | 51 | 197 | 2.0 | 3.0 | 0.00 | 0.00 | 0.00 | ||
| 20260906060215 | 51 | 153 | 0.0 | 0.0 | 0.00 | 0.00 | 0.00 | ||
| 20260906055716 | 51 | 153 | 0.0 | 0.0 | 0.00 | 0.00 | 0.00 | ||
| 20260906055218 | 50 | 153 | 0.0 | 0.0 | 0.00 | 0.00 | 0.00 | ||
| 20260906054719 | 50 | 153 | 0.0 | 0.0 | 0.00 | 0.00 | 0.00 | ||
| 20260906054221 | 49 | 205 | 1.0 | 1.0 | 0.00 | 0.00 | 0.00 | ||
| 20260906053720 | 50 | 184 | 2.0 | 1.0 | 0.00 | 0.00 | 0.00 | ||
| 20260906051725 | 48 | 176 | 0.0 | 0.0 | 0.00 | 0.00 | 0.00 | ||
| 20260906050725 | 48 | 176 | 0.0 | 0.0 | 0.00 | 0.00 | 0.00 | ||
| 20260906045728 | 50 | 186 | 1.0 | 1.0 | 0.00 | 0.00 | 0.00 | ||
| 20260906045229 | 50 | 113 | 0.0 | 0.0 | 0.00 | 0.00 | 0.00 | ||
| 20260906044726 | 49 | 113 | 0.0 | 0.0 | 0.00 | 0.00 | 0.00 | ||
| 20260906044227 | 47 | 142 | 1.0 | 0.0 | 0.00 | 0.00 | 0.00 | ||
| 20260906043726 | 47 | 170 | 0.0 | 1.0 | 0.00 | 0.00 | 0.00 | ||
| 20260906042729 | 48 | 308 | 2.0 | 1.0 | 0.00 | 0.00 | 0.00 | ||
| 20260906041726 | 47 | 260 | 1.0 | 1.0 | 0.00 | 0.00 | 0.00 | ||
| 20260906041227 | 47 | 322 | 0.0 | 0.0 | 0.00 | 0.00 | 0.00 | ||
| 20260906040729 | 48 | 322 | 0.0 | 0.0 | 0.00 | 0.00 | 0.00 | ||
| 20260906040230 | 50 | 155 | 0.0 | 0.0 | 0.00 | 0.00 | 0.00 | ||
| 20260906035228 | 49 | 159 | 1.0 | 1.0 | 0.00 | 0.00 | 0.00 | ||
| 20260906033729 | 49 | 357 | 1.0 | 1.0 | 0.00 | 0.00 | 0.00 | ||
| 20260906033227 | 50 | 107 | 0.0 | 0.0 | 0.00 | 0.00 | 0.00 | ||
| 20260906032727 | 49 | 107 | 0.0 | 0.0 | 0.00 | 0.00 | 0.00 | ||
| 20260906031727 | 49 | 107 | 0.0 | 0.0 | 0.00 | 0.00 | 0.00 | ||
| 20260906031229 | 50 | 107 | 0.0 | 0.0 | 0.00 | 0.00 | 0.00 | ||
| 20260906030727 | 49 | 107 | 0.0 | 0.0 | 0.00 | 0.00 | 0.00 | ||
| 20260906030229 | 49 | 107 | 0.0 | 0.0 | 0.00 | 0.00 | 0.00 | ||
| 20260906025730 | 51 | 107 | 0.0 | 0.0 | 0.00 | 0.00 | 0.00 | ||
| 20260906025232 | 51 | 107 | 0.0 | 0.0 | 0.00 | 0.00 | 0.00 | ||
| 20260906024733 | 50 | 107 | 0.0 | 0.0 | 0.00 | 0.00 | 0.00 | ||
| 20260906024231 | 51 | 107 | 0.0 | 0.0 | 0.00 | 0.00 | 0.00 | ||
| 20260906023732 | 51 | 197 | 0.0 | 0.0 | 0.00 | 0.00 | 0.00 | ||
| 20260906023233 | 51 | 197 | 0.0 | 0.0 | 0.00 | 0.00 | 0.00 | ||
| 20260906022735 | 51 | 197 | 0.0 | 0.0 | 0.00 | 0.00 | 0.00 | ||
| 20260906022236 | 51 | 197 | 0.0 | 0.0 | 0.00 | 0.00 | 0.00 | ||
| 20260906021735 | 52 | 232 | 0.0 | 1.0 | 0.00 | 0.00 | 0.00 | ||
| 20260906020737 | 50 | 207 | 4.0 | 4.0 | 0.00 | 0.00 | 0.00 | ||
| 20260906020239 | 50 | 231 | 5.0 | 5.0 | 0.00 | 0.00 | 0.00 | ||
| 20260906015740 | 50 | 217 | 4.0 | 4.0 | 0.00 | 0.00 | 0.00 | ||
| 20260906015235 | 49 | 205 | 3.0 | 3.0 | 0.00 | 0.00 | 0.00 | ||
| 20260906014736 | 50 | 195 | 4.0 | 3.0 | 0.00 | 0.00 | 0.00 | ||
| 20260906012239 | 51 | 134 | 0.0 | 0.0 | 0.00 | 0.00 | 0.00 | ||
| 20260906011740 | 52 | 134 | 0.0 | 0.0 | 0.00 | 0.00 | 0.00 | ||
| 20260906011241 | 53 | 134 | 0.0 | 0.0 | 0.00 | 0.00 | 0.00 | ||
| 20260906010742 | 52 | 190 | 1.0 | 0.0 | 0.00 | 0.00 | 0.00 | ||
| 20260906010240 | 53 | 174 | 2.0 | 2.0 | 0.00 | 0.00 | 0.00 | ||
| 20260906005741 | 53 | 176 | 2.0 | 2.0 | 0.00 | 0.00 | 0.00 | ||
| 20260906005242 | 54 | 155 | 1.0 | 1.0 | 0.00 | 0.00 | 0.00 | ||
| 20260906004743 | 53 | 200 | 2.0 | 2.0 | 0.00 | 0.00 | 0.00 | ||
| 20260906004245 | 52 | 207 | 3.0 | 3.0 | 0.00 | 0.00 | 0.00 | ||
| 20260906003742 | 52 | 243 | 3.0 | 4.0 | 0.00 | 0.00 | 0.00 | ||
| 20260906003244 | 52 | 222 | 4.0 | 4.0 | 0.00 | 0.00 | 0.00 | ||
| 20260906002745 | 51 | 200 | 4.0 | 4.0 | 0.00 | 0.00 | 0.00 | ||
| 20260906002246 | 51 | 215 | 3.0 | 4.0 | 0.00 | 0.00 | 0.00 | ||
| 20260906001748 | 52 | 217 | 2.0 | 3.0 | 0.00 | 0.00 | 0.00 | ||
| 20260906001246 | 52 | 215 | 3.0 | 2.0 | 0.00 | 0.00 | 0.00 | ||
| 20260906000748 | 52 | 218 | 4.0 | 4.0 | 0.00 | 0.00 | 0.00 | ||
| 20260906000249 | 52 | 218 | 4.0 | 3.0 | 0.00 | 0.00 | 0.00 | ||
| 20260905235751 | 52 | 218 | 5.0 | 5.0 | 0.00 | 0.00 | 0.00 | ||
| 20260905235252 | 52 | 222 | 5.0 | 5.0 | 0.00 | 0.00 | 0.00 | ||
| 20260905234750 | 52 | 215 | 4.0 | 4.0 | 0.00 | 0.00 | 0.00 | ||
| 20260905234251 | 53 | 221 | 2.0 | 3.0 | 0.00 | 0.00 | 0.00 | ||
| 20260905233752 | 55 | 195 | 2.0 | 2.0 | 0.00 | 0.00 | 0.00 | ||
| 20260905233254 | 54 | 163 | 2.0 | 1.0 | 0.00 | 0.00 | 0.00 | ||
| 20260905232755 | 52 | 211 | 2.0 | 2.0 | 0.00 | 0.00 | 0.00 | ||
| 20260905232253 | 52 | 288 | 2.0 | 2.0 | 0.00 | 0.00 | 0.00 | ||
| 20260905231754 | 52 | 200 | 0.0 | 0.0 | 0.00 | 0.00 | 0.00 | ||
| 20260905231256 | 55 | 200 | 0.0 | 0.0 | 0.00 | 0.00 | 0.00 | ||
| 20260905230755 | 55 | 200 | 0.0 | 0.0 | 0.00 | 0.00 | 0.00 | ||
| 20260905230257 | 55 | 200 | 0.0 | 0.0 | 0.00 | 0.00 | 0.00 | ||
| 20260905225754 | 52 | 200 | 0.0 | 0.0 | 0.00 | 0.00 | 0.00 | ||
| 20260905225256 | 53 | 200 | 0.0 | 0.0 | 0.00 | 0.00 | 0.00 | ||
| 20260905224757 | 53 | 222 | 3.0 | 3.0 | 0.00 | 0.00 | 0.00 | ||
| 20260905224259 | 53 | 217 | 4.0 | 4.0 | 0.00 | 0.00 | 0.00 | ||
| 20260905223800 | 55 | 193 | 4.0 | 5.0 | 0.00 | 0.00 | 0.00 | ||
| 20260905222800 | 56 | 207 | 0.0 | 0.0 | 0.00 | 0.00 | 0.00 | ||
| 20260905222305 | 55 | 197 | 3.0 | 2.0 | 0.00 | 0.00 | 0.00 | ||
| 20260905221803 | 54 | 225 | 3.0 | 4.0 | 0.00 | 0.00 | 0.00 | ||
| 20260905221305 | 55 | 225 | 4.0 | 4.0 | 0.00 | 0.00 | 0.00 | ||
| 20260905220305 | 55 | 219 | 5.0 | 5.0 | 0.00 | 0.00 | 0.00 | ||
| 20260905214809 | 55 | 193 | 4.0 | 3.0 | 0.00 | 0.00 | 0.00 | ||
| 20260905213310 | 59 | 150 | 2.0 | 1.0 | 0.00 | 0.00 | 0.00 | ||
| 20260905212812 | 59 | 139 | 2.0 | 2.0 | 0.00 | 0.00 | 0.00 | ||
| 20260905212313 | 59 | 111 | 0.0 | 1.0 | 0.00 | 0.00 | 0.00 | ||
| 20260905211812 | 59 | 194 | 0.0 | 0.0 | 0.00 | 0.00 | 0.00 | ||
| 20260905211313 | 57 | 218 | 2.0 | 2.0 | 0.00 | 0.00 | 0.00 | ||
| 20260905210815 | 57 | 233 | 2.0 | 1.0 | 0.00 | 0.00 | 0.00 | ||
| 20260905210316 | 57 | 225 | 4.0 | 3.0 | 0.00 | 0.00 | 0.00 | ||
| 20260905205817 | 58 | 217 | 3.0 | 4.0 | 0.00 | 0.00 | 0.00 | ||
| 20260905205315 | 57 | 228 | 3.0 | 3.0 | 0.00 | 0.00 | 0.00 | ||
| 20260905204318 | 58 | 150 | 1.0 | 0.0 | 0.00 | 0.00 | 0.00 | ||
| 20260905203819 | 58 | 160 | 1.0 | 1.0 | 0.00 | 0.00 | 0.00 | ||
| 20260905203321 | 60 | 197 | 1.0 | 1.0 | 0.00 | 0.00 | 0.00 | ||
| 20260905202818 | 60 | 256 | 2.0 | 1.0 | 0.00 | 0.00 | 0.00 | ||
| 20260905202320 | 60 | 283 | 2.0 | 3.0 | 0.00 | 0.00 | 0.00 | ||
| 20260905201322 | 60 | 300 | 3.0 | 2.0 | 0.00 | 0.00 | 0.00 | ||
| 20260905200824 | 61 | 297 | 4.0 | 4.0 | 0.00 | 0.00 | 0.00 | ||
| 20260905200321 | 61 | 309 | 5.0 | 7.0 | 0.00 | 0.00 | 0.00 | ||
| 20260905195823 | 61 | 312 | 6.0 | 5.0 | 0.00 | 0.00 | 0.00 | ||
| 20260905195320 | 62 | 319 | 6.0 | 5.0 | 0.00 | 0.00 | 0.00 | ||
| 20260905194821 | 61 | 315 | 7.0 | 6.0 | 0.00 | 0.00 | 0.00 | ||
| 20260905194323 | 62 | 312 | 7.0 | 7.0 | 0.00 | 0.00 | 0.00 | ||
| 20260905193321 | 62 | 315 | 6.0 | 6.0 | 0.00 | 0.00 | 0.00 | ||
| 20260905192822 | 62 | 323 | 7.0 | 6.0 | 0.00 | 0.00 | 0.00 | ||
| 20260905192322 | 63 | 312 | 6.0 | 7.0 | 0.00 | 0.00 | 0.00 | ||
| 20260905191927 | 62 | 321 | 8.0 | 8.0 | 0.00 | 0.00 | 0.00 | ||
| 20260905191823 | 62 | 321 | 8.0 | 8.0 | 0.00 | 0.00 | 0.00 | ||
| 20260905191321 | 62 | 326 | 8.0 | 8.0 | 0.00 | 0.00 | 0.00 | ||
| 20260905190822 | 62 | 316 | 8.0 | 8.0 | 0.00 | 0.00 | 0.00 | ||
| 20260905190323 | 63 | 316 | 9.0 | 9.0 | 0.00 | 0.00 | 0.00 | ||
| 20260905185326 | 64 | 316 | 8.0 | 7.0 | 0.00 | 0.00 | 0.00 | ||
| 20260905184824 | 63 | 297 | 8.0 | 9.0 | 0.00 | 0.00 | 0.00 | ||
| 20260905184325 | 63 | 288 | 6.0 | 6.0 | 0.00 | 0.00 | 0.00 | ||
| 20260905183827 | 63 | 288 | 7.0 | 7.0 | 0.00 | 0.00 | 0.00 | ||
| 20260905183328 | 63 | 297 | 6.0 | 8.0 | 0.00 | 0.00 | 0.00 | ||
| 20260905182829 | 63 | 285 | 6.0 | 6.0 | 0.00 | 0.00 | 0.00 | ||
| 20260905182327 | 63 | 285 | 6.0 | 7.0 | 0.00 | 0.00 | 0.00 | ||
| 20260905181828 | 64 | 311 | 5.0 | 5.0 | 0.00 | 0.00 | 0.00 | ||
| 20260905181329 | 65 | 294 | 7.0 | 7.0 | 0.00 | 0.00 | 0.00 | ||
| 20260905180830 | 65 | 297 | 7.0 | 8.0 | 0.00 | 0.00 | 0.00 | ||
| 20260905180332 | 66 | 284 | 8.0 | 7.0 | 0.00 | 0.00 | 0.00 | ||
| 20260905175905 | 66 | 290 | 7.0 | 8.0 | 0.00 | 0.00 | 0.00 | ||
| 20260905175829 | 66 | 290 | 7.0 | 8.0 | 0.00 | 0.00 | 0.00 | ||
| 20260905175330 | 66 | 287 | 8.0 | 8.0 | 0.00 | 0.00 | 0.00 | ||
| 20260905174832 | 66 | 285 | 9.0 | 7.0 | 0.00 | 0.00 | 0.00 | ||
| 20260905174333 | 67 | 262 | 7.0 | 7.0 | 0.00 | 0.00 | 0.00 | ||
| 20260905173834 | 67 | 297 | 9.0 | 7.0 | 0.00 | 0.00 | 0.00 | ||
| 20260905173332 | 68 | 287 | 11.0 | 10.0 | 0.00 | 0.00 | 0.00 | ||
| 20260905172833 | 70 | 308 | 9.0 | 8.0 | 0.00 | 0.00 | 0.00 | ||
| 20260905172334 | 71 | 307 | 9.0 | 8.0 | 0.00 | 0.00 | 0.00 | ||
| 20260905171930 | 69 | 300 | 13.0 | 10.0 | 0.00 | 0.00 | 0.00 | ||
| 20260905171835 | 69 | 300 | 13.0 | 10.0 | 0.00 | 0.00 | 0.00 | ||
| 20260905170335 | 71 | 314 | 6.0 | 8.0 | 0.00 | 0.00 | 0.00 | ||
| 20260905165836 | 72 | 302 | 9.0 | 8.0 | 0.00 | 0.00 | 0.00 | ||
| 20260905165337 | 72 | 300 | 7.0 | 7.0 | 0.00 | 0.00 | 0.00 | ||
| 20260905164838 | 74 | 267 | 7.0 | 8.0 | 0.00 | 0.00 | 0.00 | ||
| 20260905164337 | 73 | 271 | 12.0 | 10.0 | 0.00 | 0.00 | 0.00 | ||
| 20260905163838 | 72 | 264 | 9.0 | 8.0 | 0.00 | 0.00 | 0.00 | ||
| 20260905162339 | 73 | 277 | 6.0 | 6.0 | 0.00 | 0.00 | 0.00 | ||
| 20260905161836 | 73 | 259 | 7.0 | 8.0 | 0.00 | 0.00 | 0.00 | ||
| 20260905161337 | 73 | 270 | 7.0 | 4.0 | 0.00 | 0.00 | 0.00 | ||
| 20260905160837 | 74 | 262 | 8.0 | 19.0 | 0.00 | 0.00 | 0.00 | ||
| 20260905160338 | 73 | 273 | 10.0 | 10.0 | 0.00 | 0.00 | 0.00 | ||
| 20260905155839 | 73 | 250 | 5.0 | 8.0 | 0.00 | 0.00 | 0.00 | ||
| 20260905154839 | 74 | 283 | 6.0 | 4.0 | 0.00 | 0.00 | 0.00 | ||
| 20260905154340 | 73 | 217 | 9.0 | 14.0 | 0.00 | 0.00 | 0.00 | ||
| 20260905153342 | 74 | 198 | 9.0 | 3.0 | 0.00 | 0.00 | 0.00 | ||
| 20260905152840 | 74 | 253 | 10.0 | 5.0 | 0.00 | 0.00 | 0.00 | ||
| 20260905152341 | 74 | 246 | 8.0 | 11.0 | 0.00 | 0.00 | 0.00 | ||
| 20260905151842 | 73 | 215 | 10.0 | 12.0 | 0.00 | 0.00 | 0.00 | ||
| 20260905151343 | 74 | 201 | 8.0 | 7.0 | 0.00 | 0.00 | 0.00 | ||
| 20260905150844 | 74 | 236 | 10.0 | 18.0 | 0.00 | 0.00 | 0.00 | ||
| 20260905150343 | 75 | 205 | 7.0 | 11.0 | 0.00 | 0.00 | 0.00 | ||
| 20260905145844 | 74 | 218 | 9.0 | 11.0 | 0.00 | 0.00 | 0.00 | ||
| 20260905145345 | 74 | 246 | 12.0 | 7.0 | 0.00 | 0.00 | 0.00 | ||
| 20260905144846 | 75 | 260 | 12.0 | 16.0 | 0.00 | 0.00 | 0.00 | ||
| 20260905144347 | 74 | 297 | 10.0 | 5.0 | 0.00 | 0.00 | 0.00 | ||
| 20260905143845 | 73 | 253 | 12.0 | 5.0 | 0.00 | 0.00 | 0.00 | ||
| 20260905143346 | 74 | 229 | 11.0 | 12.0 | 0.00 | 0.00 | 0.00 | ||
| 20260905142348 | 74 | 263 | 10.0 | 16.0 | 0.00 | 0.00 | 0.00 | ||
| 20260905141347 | 75 | 238 | 9.0 | 12.0 | 0.00 | 0.00 | 0.00 | ||
| 20260905140848 | 74 | 266 | 10.0 | 10.0 | 0.00 | 0.00 | 0.00 | ||
| 20260905140348 | 73 | 255 | 10.0 | 9.0 | 0.00 | 0.00 | 0.00 | ||
| 20260905135849 | 73 | 269 | 10.0 | 8.0 | 0.00 | 0.00 | 0.00 | ||
| 20260905135350 | 75 | 239 | 8.0 | 8.0 | 0.00 | 0.00 | 0.00 | ||
| 20260905134848 | 74 | 273 | 7.0 | 5.0 | 0.00 | 0.00 | 0.00 | ||
| 20260905134349 | 74 | 260 | 8.0 | 12.0 | 0.00 | 0.00 | 0.00 | ||
| 20260905133850 | 72 | 300 | 7.0 | 9.0 | 0.00 | 0.00 | 0.00 | ||
| 20260905133351 | 73 | 242 | 13.0 | 9.0 | 0.00 | 0.00 | 0.00 | ||
| 20260905132852 | 71 | 266 | 9.0 | 7.0 | 0.00 | 0.00 | 0.00 | ||
| 20260905132350 | 72 | 248 | 11.0 | 13.0 | 0.00 | 0.00 | 0.00 | ||
| 20260905131352 | 73 | 177 | 9.0 | 6.0 | 0.00 | 0.00 | 0.00 | ||
| 20260905130853 | 73 | 329 | 10.0 | 7.0 | 0.00 | 0.00 | 0.00 | ||
| 20260905130354 | 73 | 246 | 9.0 | 9.0 | 0.00 | 0.00 | 0.00 | ||
| 20260905125851 | 74 | 264 | 9.0 | 11.0 | 0.00 | 0.00 | 0.00 | ||
| 20260905125352 | 74 | 257 | 10.0 | 14.0 | 0.00 | 0.00 | 0.00 | ||
| 20260905124854 | 73 | 229 | 13.0 | 12.0 | 0.00 | 0.00 | 0.00 | ||
| 20260905124355 | 71 | 231 | 11.0 | 6.0 | 0.00 | 0.00 | 0.00 | ||
| 20260905123856 | 71 | 248 | 7.0 | 7.0 | 0.00 | 0.00 | 0.00 | ||
| 20260905123354 | 74 | 264 | 13.0 | 15.0 | 0.00 | 0.00 | 0.00 | ||
| 20260905122856 | 73 | 231 | 6.0 | 9.0 | 0.00 | 0.00 | 0.00 | ||
| 20260905122357 | 73 | 231 | 8.0 | 8.0 | 0.00 | 0.00 | 0.00 | ||
| 20260905121858 | 73 | 264 | 9.0 | 14.0 | 0.00 | 0.00 | 0.00 | ||
| 20260905121359 | 72 | 232 | 14.0 | 5.0 | 0.00 | 0.00 | 0.00 | ||
| 20260905120359 | 72 | 242 | 10.0 | 12.0 | 0.00 | 0.00 | 0.00 | ||
| 20260905115900 | 75 | 246 | 7.0 | 12.0 | 0.00 | 0.00 | 0.00 | ||
| 20260905115402 | 74 | 222 | 9.0 | 9.0 | 0.00 | 0.00 | 0.00 | ||
| 20260905114903 | 73 | 222 | 8.0 | 6.0 | 0.00 | 0.00 | 0.00 | ||
| 20260905114401 | 71 | 222 | 5.0 | 5.0 | 0.00 | 0.00 | 0.00 | ||
| 20260905113903 | 71 | 231 | 9.0 | 6.0 | 0.00 | 0.00 | 0.00 | ||
| 20260905113404 | 73 | 221 | 8.0 | 11.0 | 0.00 | 0.00 | 0.00 | ||
| 20260905112905 | 72 | 217 | 10.0 | 6.0 | 0.00 | 0.00 | 0.00 | ||
| 20260905111904 | 70 | 224 | 9.0 | 8.0 | 0.00 | 0.00 | 0.00 | ||
| 20260905105909 | 72 | 232 | 10.0 | 8.0 | 0.00 | 0.00 | 0.00 | ||
| 20260905104907 | 70 | 224 | 11.0 | 7.0 | 0.00 | 0.00 | 0.00 | ||
| 20260905103910 | 71 | 217 | 9.0 | 11.0 | 0.00 | 0.00 | 0.00 | ||
| 20260905103411 | 70 | 248 | 13.0 | 12.0 | 0.00 | 0.00 | 0.00 | ||
| 20260905102910 | 70 | 232 | 7.0 | 7.0 | 0.00 | 0.00 | 0.00 | ||
| 20260905102411 | 70 | 246 | 11.0 | 10.0 | 0.00 | 0.00 | 0.00 | ||
| 20260905101910 | 70 | 235 | 10.0 | 8.0 | 0.00 | 0.00 | 0.00 | ||
| 20260905101411 | 70 | 243 | 9.0 | 8.0 | 0.00 | 0.00 | 0.00 | ||
| 20260905100411 | 69 | 278 | 6.0 | 5.0 | 0.00 | 0.00 | 0.00 | ||
| 20260905095911 | 69 | 229 | 8.0 | 7.0 | 0.00 | 0.00 | 0.00 | ||
| 20260905095413 | 68 | 255 | 6.0 | 4.0 | 0.00 | 0.00 | 0.00 | ||
| 20260905094914 | 67 | 252 | 8.0 | 6.0 | 0.00 | 0.00 | 0.00 | ||
| 20260905094415 | 66 | 250 | 8.0 | 5.0 | 0.00 | 0.00 | 0.00 | ||
| 20260905093913 | 66 | 253 | 9.0 | 7.0 | 0.00 | 0.00 | 0.00 | ||
| 20260905093414 | 66 | 301 | 7.0 | 6.0 | 0.00 | 0.00 | 0.00 |